EW8320 Weather Reports


Display with metric or nautical units.
time (UTC)temp
F
wind
direction
speed
MPH
gust
MPH
rain 1hr
in
rain 24hr
in
rain mn
in
humidity
%
barometer
mb
20260506001520 63 69 0.0 0.0 0.00 0.00 0.00 36 1015.6
20260505235620 65 67 0.0 0.0 0.00 0.00 0.00 34 1015.5
20260505234719 65 64 0.0 0.0 0.00 0.00 0.00 34 1015.6
20260505233719 64 58 0.0 0.0 0.00 0.00 0.00 34 1015.5
20260505232721 64 63 0.0 0.0 0.00 0.00 0.00 34 1015.7
20260505231721 63 66 0.0 0.0 0.00 0.00 0.00 35 1015.6
20260505230718 63 88 0.0 0.0 0.00 0.00 0.00 34 1015.4
20260505225718 64 62 0.0 0.0 0.00 0.00 0.00 34 1015.5
20260505224818 65 98 0.0 0.0 0.00 0.00 0.00 35 1015.5
20260505223820 65 84 0.0 0.0 0.00 0.00 0.00 34 1015.6
20260505222818 65 54 0.0 0.0 0.00 0.00 0.00 35 1015.6
20260505221818 63 75 0.0 0.0 0.00 0.00 0.00 36 1015.7
20260505220821 63 66 0.0 0.0 0.00 0.00 0.00 35 1015.6
20260505215819 63 88 0.0 0.0 0.00 0.00 0.00 36 1015.6
20260505213917 63 68 0.0 0.0 0.00 0.00 0.00 35 1015.6
20260505213821 63 71 0.0 0.0 0.00 0.00 0.00 34 1015.6
20260505212818 62 135 0.0 0.0 0.00 0.00 0.00 34 1015.6
20260505212722 63 122 0.0 0.0 0.00 0.00 0.00 34 1015.7
20260505211718 63 91 0.0 0.0 0.00 0.00 0.00 34 1015.8
20260505210720 64 57 0.0 0.0 0.00 0.00 0.00 34 1015.7
20260505205719 63 101 0.0 0.0 0.00 0.00 0.00 33 1015.7
20260505203820 65 64 0.0 0.0 0.00 0.00 0.00 34 1016.0
20260505202820 64 112 0.0 0.0 0.00 0.00 0.00 35 1015.9
20260505201820 63 80 0.0 0.0 0.00 0.00 0.00 34 1016.0
20260505195820 63 311 0.0 0.0 0.00 0.00 0.00 34 1016.3
20260505194819 63 97 0.0 0.0 0.00 0.00 0.00 36 1016.4
20260505193836 63 92 0.0 0.0 0.00 0.00 0.00 34 1016.2
20260505192919 63 67 0.0 0.0 0.00 0.00 0.00 35 1016.2
20260505192820 64 84 0.0 0.0 0.00 0.00 0.00 35 1016.3
20260505191919 63 315 0.0 0.0 0.00 0.00 0.00 36 1016.4
20260505190918 63 99 0.0 0.0 0.00 0.00 0.00 36 1016.3
20260505185920 63 118 0.0 0.0 0.00 0.00 0.00 36 1016.3
20260505185018 63 63 0.0 0.0 0.00 0.00 0.00 36 1016.4
20260505184020 62 58 0.0 0.0 0.00 0.00 0.00 36 1016.4
20260505183019 63 83 0.0 0.0 0.00 0.00 0.00 36 1016.5
20260505182035 62 93 0.0 0.0 0.00 0.00 0.00 34 1016.4
20260505181019 66 45 0.0 0.0 0.00 0.00 0.00 35 1016.3
20260505180020 67 144 0.0 0.0 0.00 0.00 0.00 32 1016.4
20260505175919 67 135 0.0 0.0 0.00 0.00 0.00 32 1016.5
20260505174921 67 107 0.0 0.0 0.00 0.00 0.00 33 1016.4
20260505173936 67 360 0.0 0.0 0.00 0.00 0.00 34 1016.4
20260505172918 68 66 0.0 0.0 0.00 0.00 0.00 38 1016.4
20260505171919 67 81 0.0 0.0 0.00 0.00 0.00 42 1016.4
20260505170920 65 46 0.0 0.0 0.00 0.00 0.00 47 1016.3
20260505165921 64 94 0.0 0.0 0.00 0.00 0.00 47 1016.4
20260505162921 63 90 0.0 0.0 0.00 0.00 0.00 49 1016.3
20260505161920 65 106 0.0 0.0 0.00 0.00 0.00 65 1016.3
20260505153017 54 202 0.0 0.0 0.00 0.00 0.00 64 1016.6
20260505152019 53 211 0.0 0.0 0.00 0.00 0.00 67 1016.6
20260505150118 50 217 0.0 0.0 0.00 0.00 0.00 69 1016.5
20260505123420 41 266 0.0 0.0 0.00 0.00 0.00 80 1014.9
20260505122420 42 255 0.0 0.0 0.00 0.00 0.00 80 1014.8
20260505120418 41 275 0.0 0.0 0.00 0.00 0.00 80 1014.7
20260505114419 42 271 0.0 0.0 0.00 0.00 0.00 80 1014.7
20260505113418 42 263 0.0 0.0 0.00 0.00 0.00 80 1014.6
20260505111419 42 265 0.0 0.0 0.00 0.00 0.00 79 1014.6
20260505110517 42 281 0.0 0.0 0.00 0.00 0.00 79 1014.5
20260505101621 44 277 0.0 0.0 0.00 0.00 0.00 76 1014.3
20260505100719 45 249 0.0 0.0 0.00 0.00 0.00 78 1014.3
20260505095720 52 274 0.0 0.0 0.00 0.00 0.00 100 1014.4
20260505094819 53 268 0.0 0.0 0.00 0.00 0.00 100 1014.3
20260505093819 50 260 0.0 0.0 0.00 0.00 0.00 100 1014.4
20260505093718 51 266 0.0 0.0 0.00 0.00 0.00 100 1014.3
20260505092718 55 263 0.0 0.0 0.00 0.00 0.00 100 1014.3
20260505091719 55 263 0.0 0.0 0.00 0.00 0.00 100 1014.2
20260505090725 55 264 0.0 0.0 0.00 0.00 0.00 100 1014.0
20260505085719 55 269 0.0 0.0 0.00 0.00 0.00 100 1014.1
20260505084819 55 262 0.0 0.0 0.00 0.00 0.00 100 1014.1
20260505083818 55 248 0.0 0.0 0.00 0.00 0.00 100 1014.1
20260505083719 55 249 0.0 0.0 0.00 0.00 0.00 100 1014.0
20260505082718 55 246 0.0 0.0 0.00 0.00 0.00 100 1014.0
20260505080719 52 275 0.0 0.0 0.00 0.00 0.00 100 1013.8
20260505074720 53 212 0.0 0.0 0.00 0.00 0.00 100 1013.9
20260505073817 48 202 0.0 0.0 0.00 0.00 0.00 89 1013.9
20260505072818 45 202 0.0 0.0 0.00 0.00 0.00 77 1013.9
20260505071818 45 180 0.0 0.0 0.00 0.00 0.00 76 1013.8
20260505070819 46 202 0.0 0.0 0.00 0.00 0.00 75 1013.8
20260505065831 47 239 0.0 0.0 0.00 0.00 0.00 73 1013.8
20260505064831 47 261 0.0 0.0 0.00 0.00 0.00 73 1013.6
20260505063927 47 292 0.0 0.0 0.00 0.00 0.00 74 1013.4
20260505061929 47 59 0.0 0.0 0.00 0.00 0.00 73 1013.6
20260505060931 47 291 0.0 0.0 0.00 0.00 0.00 73 1013.5
20260505055929 47 360 0.0 0.0 0.00 0.00 0.00 73 1013.5
20260505054929 48 45 0.0 0.0 0.00 0.00 0.00 72 1013.5
20260505053929 48 360 0.0 0.0 0.00 0.00 0.00 71 1013.4
20260505052928 48 247 0.0 0.0 0.00 0.00 0.00 70 1013.5
20260505051932 48 251 0.0 0.0 0.00 0.00 0.00 71 1013.6
20260505050928 49 242 0.0 0.0 0.00 0.00 0.00 69 1013.7
20260505035228 53 180 0.0 0.0 0.00 0.00 0.00 58 1013.6
20260505034232 54 209 0.0 0.0 0.00 0.00 0.00 56 1013.4
20260505032329 56 337 0.0 0.0 0.00 0.00 0.00 50 1013.2
20260505030527 59 315 0.0 0.0 0.00 0.00 0.00 47 1012.9
20260505030444 59 315 0.0 0.0 0.00 0.00 0.00 47 1013.0
20260505025530 59 345 0.0 0.0 0.00 0.00 0.00 47 1012.8
20260505024627 60 344 0.0 0.0 0.00 0.00 0.00 47 1012.6
20260505023630 62 334 0.0 0.0 0.00 0.00 0.00 45 1012.4
20260505022644 63 22 0.0 0.0 0.00 0.00 0.00 41 1012.3
20260505021630 64 45 0.0 0.0 0.00 0.00 0.00 39 1012.3
20260505020728 64 53 0.0 0.0 0.00 0.00 0.00 38 1012.1
20260505015729 65 39 0.0 0.0 0.00 0.00 0.00 36 1012.1
20260505014827 66 51 0.0 0.0 0.00 0.00 0.00 37 1012.0
20260505013828 66 62 0.0 0.0 0.00 0.00 0.00 35 1012.0
20260505012927 68 75 0.0 0.0 0.00 0.00 0.00 34 1011.9
20260505012829 68 71 0.0 0.0 0.00 0.00 0.00 33 1011.9
20260505011829 69 58 0.0 0.0 0.00 0.00 0.00 33 1011.9
20260505010829 69 84 0.0 0.0 0.00 0.00 0.00 30 1011.9
20260505005928 69 94 0.0 0.0 0.00 0.00 0.00 30 1011.7
20260505002129 70 88 0.0 0.0 0.00 0.00 0.00 27 1011.6